1998-067WY

Last updated on Thu Sep 12 2024 00:02:06 GMT+0000 (Coordinated Universal Time)

1 60958U 98067WY 24255.26696878 .00111909 00000+0 17682-2 0 9994 2 60958 51.6372 248.7650 0013003 348.1561 11.9121 15.52529127 1994
UTC large
Height (km)
Speed (km/s)
/
Latitude / Longitude
Inclination (degrees)
Orbital Period (minutes)
Azimuth
Elevation
Range (km)
Doppler Factor

Next 0 passes for location: London (51.5072 / 0.1276)

Sorry there are no passes over London.